Hourly Data Report for April 10, 2006

TORONTO CITY
ONTARIO

43°40'00.000" N
79°24'00.000" W
112.50 m
6158355
71508
XTO

Download Data

Hourly Data (April 2006)
Hourly Data Report for April 10, 2006
TIME
LST
Temp Definition
°C
Dew Point Definition
°C
Rel Hum Definition
%
Precip. Amount Definition
mm

Wind Dir Definition
10's deg

Wind Spd Definition
km/h
Visibility Definition
km
Stn Press Definition
kPa
Hmdx Definition


Wind Chill Definition


Weather Definition


00:00 4.6 -0.3 70   LegendMM LegendMM   100.89     LegendNANA
01:00 4.4 0.2 74   LegendMM LegendMM   100.94     LegendNANA
02:00 4.3 -0.1 73   LegendMM LegendMM   100.93     LegendNANA
03:00 4.0 -0.4 73   LegendMM LegendMM   100.94     LegendNANA
04:00 3.5 -0.3 76   LegendMM LegendMM   100.96     LegendNANA
05:00 3.6 0.3 79   LegendMM LegendMM   101.01     LegendNANA
06:00 3.5 0.3 80   LegendMM LegendMM   101.08     LegendNANA
07:00 4.4 0.2 74   LegendMM LegendMM   101.13     LegendNANA
08:00 6.3 0.4 66   LegendMM LegendMM   101.14     LegendNANA
09:00 6.5 -0.8 60   LegendMM LegendMM   101.14     LegendNANA
10:00 8.9 0.2 54   LegendMM LegendMM   101.14     LegendNANA
11:00 10.3 1.1 53   LegendMM LegendMM   101.12     LegendNANA
12:00 12.2 1.2 47   LegendMM LegendMM   101.05     LegendNANA
13:00 12.9 1.9 47   LegendMM LegendMM   100.99     LegendNANA
14:00 13.8 2.3 46   LegendMM LegendMM   100.93     LegendNANA
15:00 13.3 0.7 42   LegendMM LegendMM   100.87     LegendNANA
16:00 13.1 -0.4 39   LegendMM LegendMM   100.85     LegendNANA
17:00 12.4 -2.0 37   LegendMM LegendMM   100.87     LegendNANA
18:00 12.0 -3.3 34   LegendMM LegendMM   100.87     LegendNANA
19:00 11.3 -2.0 39   LegendMM LegendMM   100.90     LegendNANA
20:00 10.9 -0.2 46   LegendMM LegendMM   100.91     LegendNANA
21:00 10.3 1.4 54   LegendMM LegendMM   100.96     LegendNANA
22:00 9.7 2.0 59   LegendMM LegendMM   100.97     LegendNANA
23:00 9.9 2.0 58   LegendMM LegendMM   100.96     LegendNANA

Notes on Data Quality.

Legend

  • E = Estimated
  • M = Missing
  • NA = Not Available*
  • [empty] = Indicates an unobserved value
Date modified: